Location: Asheville, NC
(35.6000°N, 82.5500°W)
Time: 00:32:27
(UTC-04:00)

Vanguard 3 - Pass Details

Date: 12 March 2018
Orbit: 508 x 3264 km, 33.3° (Epoch: 18 June)

Event Time Altitude Azimuth Distance (km) Brightness Sun altitude
Rises 13:18:10 0° 272° (W) 6,838 11.8 50.9°
Reaches altitude 10° 13:23:15 10° 271° (W) 5,514 11.4 51.1°
Maximum altitude 13:38:29 78° 189° (S) 1,845 10.3 51.3°
Drops below altitude 10° 13:46:49 10° 104° (ESE) 3,189 10.4 51.2°
Sets 13:49:00 0° 103° (ESE) 3,890 10.7 51.2°
